Weather History for PAAK - December, 2013

Change the Weather History Date:

Tuesday, December 3, 2013

  Actual Average (PADK) Record (PADK)
Temperature  
Mean Temperature 42 °F -  
Max Temperature 44 °F 39 °F 48 °F (1979)
Min Temperature 41 °F 29 °F 16 °F (1969)
Degree Days  
Heating Degree Days 22    
Moisture  
Dew Point 37 °F    
Average Humidity 80    
Maximum Humidity 87    
Minimum Humidity 70    
Precipitation  
Precipitation 0.00 in - - ()
Sea Level Pressure  
Sea Level Pressure 29.59 in    
Wind  
Wind Speed 7 mph (West)    
Max Wind Speed 15 mph    
Max Gust Speed 20 mph    
Visibility 9 miles    
Events      
Averages and records for this station are not official NWS values.
T = Trace of Precipitation, MM = Missing Value Source: NWS Daily Summary

Daily Weather History Graph

Daily Weather History Graph

Search for Another Location

Airport or City:

Trip Planner

Search our weather history database for the weather conditions in past years. The results will help you decide how hot, cold, wet, or windy it might be!

Date:

Astronomy

Dec. 03, 2013 Rise Set
Actual Time 9:27 AM HST 5:26 PM HST
Civil Twilight 8:46 AM HST 6:06 PM HST
Nautical Twilight 8:03 AM HST 6:49 PM HST
Astronomical Twilight 7:22 AM HST 7:30 PM HST
Moon 10:07 AM HST (12/3) 6:49 PM HST (12/3)
Length of Visible Light 9h 19m
Length of Day
7h 59m
New Moon, 1% of the Moon is Illuminated
Dec 3
New Moon
Dec 9
First Quarter
Dec 16
Full
Dec 25
Last Quarter
Jan 1
New

Hourly Weather History & Observations

Time (HST) Temp. Windchill Dew Point Humidity Pressure Visibility Wind Dir Wind Speed Gust Speed Precip Events Conditions
12:16 AM 41.0 °F 36.4 °F 33.8 °F 76% 29.89 in 10.0 mi SE 6.9 mph - N/A   Overcast
12:36 AM 42.8 °F 37.5 °F 33.8 °F 70% 29.89 in 10.0 mi South 9.2 mph - N/A   Overcast
12:56 AM 42.8 °F 38.0 °F 33.8 °F 70% 29.87 in 10.0 mi ESE 8.1 mph - N/A   Overcast
1:16 AM 42.8 °F - 33.8 °F 70% 29.87 in 10.0 mi Calm Calm - N/A   Mostly Cloudy
1:36 AM 42.8 °F 41.1 °F 33.8 °F 70% 29.86 in 10.0 mi East 3.5 mph - N/A   Overcast
1:56 AM 42.8 °F 41.1 °F 35.6 °F 76% 29.85 in 10.0 mi NNE 3.5 mph - N/A   Overcast
2:16 AM 42.8 °F 39.3 °F 33.8 °F 70% 29.84 in 10.0 mi West 5.8 mph - N/A   Mostly Cloudy
2:36 AM 42.8 °F 41.1 °F 33.8 °F 70% 29.83 in 10.0 mi South 3.5 mph - N/A   Overcast
2:56 AM 42.8 °F 38.0 °F 35.6 °F 76% 29.83 in 10.0 mi South 8.1 mph - N/A   Overcast
3:16 AM 42.8 °F 35.8 °F 35.6 °F 76% 29.81 in 10.0 mi East 13.8 mph 18.4 mph N/A   Overcast
3:36 AM 42.8 °F 37.0 °F 35.6 °F 76% 29.81 in 10.0 mi ENE 10.4 mph - N/A   Overcast
3:56 AM 42.8 °F - 35.6 °F 76% 29.80 in 10.0 mi Calm Calm - N/A   Overcast
4:16 AM 42.8 °F 37.5 °F 35.6 °F 76% 29.79 in 10.0 mi ENE 9.2 mph - N/A   Overcast
4:36 AM 42.8 °F 35.4 °F 35.6 °F 76% 29.77 in 10.0 mi ENE 15.0 mph - N/A   Overcast
4:56 AM 42.8 °F 36.6 °F 35.6 °F 76% 29.77 in 10.0 mi ENE 11.5 mph 16.1 mph N/A   Overcast
5:16 AM 42.8 °F 37.0 °F 35.6 °F 76% 29.75 in 10.0 mi ENE 10.4 mph 19.6 mph N/A   Mostly Cloudy
5:36 AM 42.8 °F 38.6 °F 35.6 °F 76% 29.74 in 10.0 mi East 6.9 mph - N/A   Overcast
5:56 AM 42.8 °F 38.0 °F 35.6 °F 76% 29.73 in 10.0 mi NNW 8.1 mph - N/A   Overcast
6:16 AM 42.8 °F 39.3 °F 35.6 °F 76% 29.72 in 10.0 mi SSW 5.8 mph - N/A   Overcast
6:36 AM 42.8 °F 38.0 °F 35.6 °F 76% 29.71 in 10.0 mi SW 8.1 mph - N/A   Overcast
6:56 AM 42.8 °F 38.6 °F 35.6 °F 76% 29.70 in 10.0 mi SSW 6.9 mph - N/A   Overcast
7:16 AM 44.6 °F 39.7 °F 35.6 °F 71% 29.68 in 10.0 mi SSW 9.2 mph - N/A   Overcast
7:36 AM 44.6 °F 41.4 °F 35.6 °F 71% 29.68 in 10.0 mi South 5.8 mph - N/A   Overcast
7:56 AM 44.6 °F 40.2 °F 35.6 °F 71% 29.67 in 10.0 mi SSW 8.1 mph - N/A   Overcast
8:16 AM 44.6 °F 40.7 °F 35.6 °F 71% 29.66 in 10.0 mi SW 6.9 mph - N/A   Overcast
8:36 AM 44.6 °F 39.2 °F 35.6 °F 71% 29.65 in 10.0 mi SW 10.4 mph - N/A   Overcast
8:56 AM 44.6 °F 39.7 °F 35.6 °F 71% 29.64 in 10.0 mi SSW 9.2 mph - N/A   Overcast
9:16 AM 44.6 °F 39.7 °F 35.6 °F 71% 29.64 in 10.0 mi SW 9.2 mph - N/A   Overcast
9:36 AM 42.8 °F 37.0 °F 35.6 °F 76% 29.63 in 10.0 mi SW 10.4 mph - N/A   Overcast
9:56 AM 42.8 °F 38.0 °F 35.6 °F 76% 29.63 in 10.0 mi SSW 8.1 mph - N/A   Overcast
10:16 AM 44.6 °F 43.1 °F 35.6 °F 71% 29.61 in 10.0 mi West 3.5 mph - N/A   Overcast
10:36 AM 42.8 °F - 37.4 °F 81% 29.60 in 10.0 mi Calm Calm - N/A   Overcast
10:56 AM 42.8 °F - 37.4 °F 81% 29.59 in 8.0 mi Calm Calm - N/A   Overcast
11:16 AM 42.8 °F - 37.4 °F 81% 29.59 in 10.0 mi Calm Calm - N/A   Overcast
11:36 AM 42.8 °F - 37.4 °F 81% 29.58 in 9.0 mi Calm Calm - N/A   Overcast
11:56 AM 42.8 °F - 37.4 °F 81% 29.57 in 10.0 mi Calm Calm - N/A   Overcast
12:16 PM 42.8 °F - 37.4 °F 81% 29.56 in 10.0 mi Calm Calm - N/A   Overcast
12:36 PM 42.8 °F - 37.4 °F 81% 29.54 in 10.0 mi Calm Calm - N/A   Overcast
12:56 PM 42.8 °F - 39.2 °F 87% 29.52 in 10.0 mi Calm Calm - N/A   Overcast
1:16 PM 42.8 °F - 39.2 °F 87% 29.51 in 10.0 mi Calm Calm - N/A   Overcast
1:36 PM 42.8 °F 40.1 °F 39.2 °F 87% 29.50 in 10.0 mi North 4.6 mph - N/A   Overcast
1:56 PM 42.8 °F - 39.2 °F 87% 29.49 in 9.0 mi Calm Calm - N/A   Overcast
2:16 PM 42.8 °F - 39.2 °F 87% 29.48 in 8.0 mi Calm Calm - N/A   Overcast
2:36 PM 44.6 °F 40.7 °F 39.2 °F 81% 29.47 in 10.0 mi WNW 6.9 mph - N/A   Overcast
2:56 PM 42.8 °F 37.0 °F 39.2 °F 87% 29.46 in 10.0 mi NW 10.4 mph - N/A   Overcast
3:16 PM 42.8 °F 37.5 °F 39.2 °F 87% 29.46 in 10.0 mi WNW 9.2 mph - N/A   Overcast
3:36 PM 42.8 °F 36.2 °F 39.2 °F 87% 29.45 in 10.0 mi WNW 12.7 mph - N/A   Overcast
3:56 PM 42.8 °F 35.4 °F 39.2 °F 87% 29.44 in 10.0 mi WNW 15.0 mph - N/A   Overcast
4:16 PM 42.8 °F 37.5 °F 39.2 °F 87% 29.44 in 9.0 mi WNW 9.2 mph - N/A   Overcast
4:36 PM 42.8 °F 38.0 °F 39.2 °F 87% 29.43 in 4.0 mi WNW 8.1 mph - N/A   Overcast
4:56 PM 42.8 °F 38.6 °F 39.2 °F 87% 29.44 in 9.0 mi NW 6.9 mph - N/A   Overcast
5:16 PM 42.8 °F 38.0 °F 37.4 °F 81% 29.44 in 10.0 mi WNW 8.1 mph - N/A   Overcast
5:36 PM 42.8 °F 36.2 °F 39.2 °F 87% 29.43 in 10.0 mi WNW 12.7 mph - N/A   Overcast
5:56 PM 42.8 °F 35.8 °F 37.4 °F 81% 29.42 in 10.0 mi WNW 13.8 mph - N/A   Overcast
6:16 PM 42.8 °F 37.0 °F 37.4 °F 81% 29.42 in 10.0 mi WNW 10.4 mph - N/A   Mostly Cloudy
6:36 PM 42.8 °F 37.0 °F 37.4 °F 81% 29.42 in 10.0 mi WNW 10.4 mph - N/A   Overcast
6:56 PM 42.8 °F 35.4 °F 37.4 °F 81% 29.41 in 10.0 mi WNW 15.0 mph - N/A   Overcast
7:16 PM 42.8 °F 35.4 °F 39.2 °F 87% 29.41 in 10.0 mi West 15.0 mph 19.6 mph N/A   Overcast
7:36 PM 42.8 °F 37.0 °F 39.2 °F 87% 29.41 in 10.0 mi West 10.4 mph - N/A   Overcast
7:56 PM 42.8 °F 38.0 °F 37.4 °F 81% 29.42 in 10.0 mi WSW 8.1 mph 16.1 mph N/A   Overcast
8:16 PM 42.8 °F 37.5 °F 37.4 °F 81% 29.41 in 10.0 mi West 9.2 mph - N/A   Overcast
8:36 PM 42.8 °F 35.8 °F 37.4 °F 81% 29.41 in 10.0 mi West 13.8 mph - N/A   Overcast
8:56 PM 42.8 °F 39.3 °F 37.4 °F 81% 29.42 in 10.0 mi SW 5.8 mph - N/A   Mostly Cloudy
9:16 PM 42.8 °F - 37.4 °F 81% 29.43 in 10.0 mi Calm Calm - N/A   Overcast
9:36 PM 42.8 °F 39.3 °F 37.4 °F 81% 29.42 in 8.0 mi NW 5.8 mph - N/A   Overcast
9:56 PM 42.8 °F 38.0 °F 39.2 °F 87% 29.40 in 5.0 mi NW 8.1 mph - N/A   Overcast
10:16 PM 42.8 °F 37.0 °F 37.4 °F 81% 29.41 in 2.0 mi WNW 10.4 mph - N/A   Overcast
10:36 PM 42.8 °F - 39.2 °F 87% 29.43 in 10.0 mi Calm Calm - N/A   Overcast
10:56 PM 42.8 °F 41.1 °F 39.2 °F 87% 29.43 in 10.0 mi North 3.5 mph - N/A   Overcast
11:16 PM 42.8 °F - 39.2 °F 87% 29.44 in 7.0 mi Calm Calm - N/A   Overcast
11:36 PM 42.8 °F - 39.2 °F 87% 29.44 in 5.0 mi Calm Calm - N/A   Overcast
11:56 PM 42.8 °F - 39.2 °F 87% 29.44 in 5.0 mi Calm Calm - N/A   Overcast